CES2055 ZSSS-VMMC

Flight info

Callsign CES2055
Flight time N/A
Altitude 36100
Route NXD W131 AKDIM A470 DUBGO W134 ELNEX A599 PLT W19 NOMAR W18 NLG
Aircraft B738/M-SDE2E3FGHIRWXY/LB1

Departure

Time N/A
Airport Shanghai Hongqiao International Airport (ZSSS)

Arrival

Time 2026-05-04 04:19
Airport Macau International Airport (VMMC)
Time Latitude Longitude Altitude Speed Heading
2026-05-04 03:52 22.76831 113.63349 6883 ft 230 kts 199°
2026-05-04 03:52 22.75323 113.62892 6878 ft 229 kts 199°
2026-05-04 03:53 22.73790 113.62426 6878 ft 231 kts 199°
2026-05-04 03:53 22.72278 113.61967 6882 ft 231 kts 199°
2026-05-04 03:53 22.70727 113.61498 6874 ft 230 kts 199°
2026-05-04 03:53 22.69178 113.61029 6877 ft 231 kts 199°
2026-05-04 03:54 22.67625 113.60558 6877 ft 231 kts 199°
2026-05-04 03:54 22.66064 113.60083 6872 ft 231 kts 199°
2026-05-04 03:54 22.64498 113.59605 6879 ft 232 kts 199°
2026-05-04 03:54 22.62943 113.59132 6871 ft 232 kts 199°
2026-05-04 03:55 22.61379 113.58657 6868 ft 233 kts 199°
2026-05-04 03:55 22.59806 113.58181 6875 ft 232 kts 199°
2026-05-04 03:55 22.58263 113.57710 6874 ft 231 kts 199°
2026-05-04 03:55 22.56704 113.57236 6871 ft 232 kts 199°
2026-05-04 03:56 22.55142 113.56760 6868 ft 232 kts 199°
2026-05-04 03:56 22.53567 113.56284 6865 ft 232 kts 198°
2026-05-04 03:56 22.51942 113.56151 6744 ft 242 kts 172°
2026-05-04 03:56 22.50325 113.56735 6374 ft 245 kts 159°
2026-05-04 03:57 22.48750 113.57458 6073 ft 241 kts 161°
2026-05-04 03:57 22.47191 113.58051 5794 ft 238 kts 165°
2026-05-04 03:57 22.45609 113.58562 5516 ft 235 kts 166°
2026-05-04 03:57 22.44034 113.59046 5234 ft 233 kts 165°
2026-05-04 03:58 22.40941 113.60010 4685 ft 228 kts 165°
2026-05-04 03:58 22.39427 113.60488 4412 ft 225 kts 164°
2026-05-04 03:58 22.37927 113.60960 4144 ft 222 kts 163°
2026-05-04 03:59 22.36445 113.61425 3885 ft 219 kts 163°
2026-05-04 03:59 22.34991 113.61880 3628 ft 216 kts 163°
2026-05-04 03:59 22.33549 113.62331 3368 ft 214 kts 162°
2026-05-04 03:59 22.32177 113.62781 3121 ft 212 kts 160°
2026-05-04 04:00 22.30765 113.63267 2871 ft 209 kts 160°
2026-05-04 04:00 22.29384 113.63743 2633 ft 206 kts 162°
2026-05-04 04:00 22.27975 113.63873 2455 ft 200 kts 191°
2026-05-04 04:00 22.26788 113.63184 2425 ft 194 kts 227°
2026-05-04 04:01 22.25908 113.62086 2260 ft 192 kts 224°
2026-05-04 04:01 22.24839 113.61296 2024 ft 187 kts 205°
2026-05-04 04:01 22.23695 113.60607 1575 ft 189 kts 217°
2026-05-04 04:01 22.22685 113.59719 1125 ft 189 kts 219°
2026-05-04 04:02 22.21592 113.58933 665 ft 188 kts 212°
2026-05-04 04:02 22.20499 113.58189 385 ft 177 kts 212°
2026-05-04 04:02 22.19361 113.57718 373 ft 176 kts 190°
2026-05-04 04:02 22.18155 113.57790 232 ft 174 kts 158°
2026-05-04 04:03 22.17055 113.58333 61 ft 173 kts 152°
2026-05-04 04:03 22.15881 113.58857 141 ft 187 kts 160°
2026-05-04 04:03 22.14690 113.59296 773 ft 182 kts 156°
2026-05-04 04:03 22.13400 113.59609 1055 ft 193 kts 183°
2026-05-04 04:04 22.12046 113.59319 1213 ft 201 kts 187°
2026-05-04 04:04 22.10694 113.59539 1213 ft 195 kts 147°
2026-05-04 04:04 22.09578 113.60356 1221 ft 194 kts 146°
2026-05-04 04:04 22.08193 113.60780 1390 ft 224 kts 181°
2026-05-04 04:05 22.06680 113.60331 2102 ft 231 kts 209°
2026-05-04 04:05 22.05421 113.59201 2757 ft 242 kts 230°
2026-05-04 04:05 22.04554 113.57650 3483 ft 247 kts 248°
2026-05-04 04:05 22.04070 113.55862 3982 ft 250 kts 264°
2026-05-04 04:06 22.04254 113.54023 4005 ft 248 kts 291°
2026-05-04 04:06 22.05141 113.52454 4001 ft 244 kts 312°
2026-05-04 04:06 22.06404 113.51224 3998 ft 244 kts 326°
2026-05-04 04:06 22.07974 113.50514 3995 ft 243 kts 351°
2026-05-04 04:07 22.09657 113.50597 4000 ft 245 kts 14°
2026-05-04 04:07 22.11266 113.51255 4002 ft 244 kts 22°
2026-05-04 04:07 22.12871 113.51820 4001 ft 243 kts
2026-05-04 04:07 22.14556 113.51714 4007 ft 244 kts 347°
2026-05-04 04:08 22.16155 113.51086 4005 ft 243 kts 334°
2026-05-04 04:08 22.17637 113.50149 4006 ft 245 kts 327°
2026-05-04 04:08 22.19021 113.49103 4008 ft 244 kts 324°
2026-05-04 04:08 22.20437 113.48053 4027 ft 245 kts 330°
2026-05-04 04:09 22.22004 113.47470 3942 ft 234 kts 357°
2026-05-04 04:09 22.23560 113.47748 3794 ft 222 kts 23°
2026-05-04 04:09 22.24886 113.48545 3631 ft 213 kts 33°
2026-05-04 04:09 22.26120 113.49411 3434 ft 207 kts 33°
2026-05-04 04:10 22.27319 113.50243 3216 ft 202 kts 33°
2026-05-04 04:10 22.28484 113.51052 3064 ft 193 kts 33°
2026-05-04 04:10 22.29594 113.51826 2861 ft 187 kts 33°
2026-05-04 04:10 22.30675 113.52582 2630 ft 183 kts 34°
2026-05-04 04:11 22.31745 113.53331 2395 ft 180 kts 33°
2026-05-04 04:11 22.32788 113.54063 2137 ft 178 kts 34°
2026-05-04 04:11 22.33809 113.54777 1885 ft 176 kts 33°
2026-05-04 04:11 22.34839 113.55492 1615 ft 174 kts 33°
2026-05-04 04:12 22.35862 113.56205 1350 ft 174 kts 33°
2026-05-04 04:12 22.36878 113.56918 1093 ft 173 kts 33°
2026-05-04 04:12 22.37895 113.57635 852 ft 171 kts 34°
2026-05-04 04:12 22.38856 113.58350 818 ft 165 kts 37°
2026-05-04 04:13 22.39629 113.59251 1151 ft 164 kts 62°
2026-05-04 04:13 22.39901 113.60448 1590 ft 170 kts 90°
2026-05-04 04:13 22.39540 113.61704 1592 ft 184 kts 118°
2026-05-04 04:13 22.38621 113.62667 1355 ft 187 kts 149°
2026-05-04 04:14 22.37334 113.63128 847 ft 206 kts 172°
2026-05-04 04:14 22.35971 113.63193 862 ft 189 kts 177°
2026-05-04 04:14 22.34640 113.63226 787 ft 185 kts 177°
2026-05-04 04:14 22.33364 113.63271 1055 ft 186 kts 176°
2026-05-04 04:15 22.32006 113.63340 794 ft 200 kts 175°
2026-05-04 04:15 22.30602 113.63474 377 ft 208 kts 169°
2026-05-04 04:15 22.29179 113.63758 239 ft 201 kts 170°
2026-05-04 04:15 22.27800 113.63777 145 ft 192 kts 191°
2026-05-04 04:16 22.26607 113.63275 230 ft 184 kts 219°
2026-05-04 04:16 22.25847 113.62182 275 ft 185 kts 235°
2026-05-04 04:16 22.24987 113.61173 738 ft 186 kts 225°
2026-05-04 04:16 22.24033 113.60251 1104 ft 181 kts 221°
2026-05-04 04:17 22.23123 113.59478 1927 ft 147 kts 213°
2026-05-04 04:17 22.22275 113.58923 1580 ft 157 kts 209°
2026-05-04 04:17 22.21279 113.58333 1064 ft 162 kts 207°
2026-05-04 04:17 22.20269 113.57866 879 ft 158 kts 200°
2026-05-04 04:18 22.19248 113.57629 561 ft 152 kts 178°
2026-05-04 04:18 22.18180 113.57881 176 ft 150 kts 157°
2026-05-04 04:18 22.17187 113.58295 57 ft 155 kts 156°
2026-05-04 04:18 22.16163 113.58697 76 ft 160 kts 158°
2026-05-04 04:19 22.15119 113.59077 13 ft 149 kts 161°
2026-05-04 04:19 22.14350 113.59360 12 ft 78 kts 162°
2026-05-04 04:19 22.14020 113.59480 12 ft 45 kts 160°